Regional Weather Roundup
Issued by NWS Huntsville, AL

Home | Current Version | Previous Version | Text Only | Print | Product List | Glossary On
Versions: 1 2 3 4 5 6 7 8 9 10 11 12 13 14 15 16 17 18 19 20 21 22 23 24 25 26 27 28 29 30 31 32 33 34 35 36 37 38 39 40 41 42 43 44 45 46 47 48 49 50
624
ASUS44 KHUN 140410
RWRHUN

WEATHER ROUNDUP FOR THE TENNESSEE VALLEY
NATIONAL WEATHER SERVICE HUNTSVILLE AL
1000 PM CST SAT FEB 13 2016

ALZ001>004-140500-
NORTHWEST ALABAMA

CITY           SKY/WX    TMP DP  RH WIND       PRES   REMARKS
RUSSELLVILLE     N/A     28 N/A N/A MISG        N/A
SHOALS AIRPORT CLEAR     30   8  39 E8        30.41F WCI  22
SHOALS TVA RES   N/A     30 N/A N/A MISG        N/A
$$

ALZ005>007-016-140500-
NORTH CENTRAL ALABAMA

CITY           SKY/WX    TMP DP  RH WIND       PRES   REMARKS
CULLMAN AG STN   N/A     28 N/A N/A NE3         N/A
DECATUR AP     CLEAR     26   9  48 NE5       30.42F WCI  20
HUNTSVILLE AP  CLEAR     28   5  37 NE8       30.41F WCI  20
HUN NWS/UAH      N/A     28   2  33 N3          N/A
MERIDIANVILLE  CLOUDY    27   5  39 CALM      30.41F
REDSTONE ARSN  CLEAR     27   6  41 NE5       30.40F WCI  22
VINEMONT AP    FAIR      26   7  43 NE5       30.40F WCI  21
$$

ALZ008>010-140500-
NORTHEAST ALABAMA

CITY           SKY/WX    TMP DP  RH WIND       PRES   REMARKS
ALBERTVILLE    CLEAR     28  18  64 N3        30.37S
FORT PAYNE     CLOUDY    28   9  43 NE3       30.37F
SCOTTSBORO AP  CLOUDY    28   9  43 CALM      30.41S
SCOTTSBORO HCN   N/A     27 N/A N/A MISG        N/A
VALLEY HEAD      N/A     23 N/A N/A MISG        N/A
$$

TNZ076-096-097-140500-
SOUTHEASTERN MIDDLE TENNESSEE

CITY           SKY/WX    TMP DP  RH WIND       PRES   REMARKS
TULLAHOMA      CLEAR     25   3  39 NE5       30.39S WCI  19
WINCHESTER     CLEAR     25  10  54 NE3       30.39F
$$

...SURROUNDING SITES...

CITY           SKY/WX    TMP DP  RH WIND       PRES   REMARKS
ATLANTA        CLEAR     32   6  33 N10       30.35F WCI  24
ANNISTON       CLEAR     32   7  35 CALM      30.39F
BIRMINGHAM     CLEAR     30  14  51 NE3       30.41F
CHATTANOOGA    CLOUDY    28   4  35 NE8       30.42F WCI  20
DALTON         CLEAR     28  10  47 N8        30.40F WCI  20
GADSDEN        CLEAR     27  16  63 CALM      30.41F
GOLDEN TRNGL   CLEAR     36  10  35 E9        30.37F WCI  29
HALEYVILLE     FAIR      28   9  44 E5        30.39F WCI  23
JACKSON TN     MOCLDY    28   7  41 E3        30.40F
MEMPHIS        CLOUDY    31   8  38 E7        30.38F WCI  24
NASHVILLE      CLOUDY    27   3  35 NE8       30.44F WCI  19
ROME           CLEAR     28  10  46 NE6       30.39F WCI  22
SAVANNAH       MOCLDY    30   5  34 CALM      30.40F
TUPELO         CLEAR     31   7  36 N6        30.39F WCI  25
TUSCALOOSA     CLEAR     35  10  35 NE7       30.41F WCI  29
$$

...GULF COAST WEATHER...

CITY           SKY/WX    TMP DP  RH WIND       PRES   REMARKS
GULFPORT       CLEAR     48  26  42 NE5       30.35S
PASCAGOULA     CLEAR     42  27  55 NE6       30.37S
MOBILE         CLEAR     42  23  46 NE3       30.37S
GULF SHORES    CLEAR     44  22  40 CALM      30.37R
PENSACOLA      CLEAR     46  20  35 N6        30.36S
DESTIN         CLEAR     50  21  32 NE7       30.36S
PANAMA CITY    CLEAR     47  23  38 N5        30.35S
APPALACHICOLA  CLEAR     46  25  43 NE6       30.34S
$$





USA.gov is the U.S. government's official web portal to all federal, state and local government web resources and services.